Weather History for Oujda, Morocco

Change the Weather History Date:

Tuesday, November 15, 2011

  Actual Average Record
Temperature  
Mean Temperature 59 °F -  
Max Temperature 65 °F 63 °F 80 °F (2006)
Min Temperature 53 °F 44 °F 35 °F (2008)
Degree Days  
Heating Degree Days 6    
Growing Degree Days 9 (Base 50)    
Moisture  
Dew Point 53 °F    
Average Humidity 82    
Maximum Humidity 100    
Minimum Humidity 44    
Precipitation  
Precipitation 0.00 in 0.05 in - ()
Sea Level Pressure  
Sea Level Pressure 30.04 in    
Wind  
Wind Speed 7 mph ()    
Max Wind Speed 14 mph    
Max Gust Speed -    
Visibility 6.6 miles    
Events Rain    
Averages and records for this station are not official NWS values.
T = Trace of Precipitation, MM = Missing Value Source: Averaged Metar Reports

Daily Weather History Graph

Daily Weather History Graph

Search for Another Location

Airport:

Trip Planner

Search our weather history database for the weather conditions in past years. The results will help you decide how hot, cold, wet, or windy it might be!

Date:

Astronomy

Nov. 15, 2011 Rise Set
Actual Time 6:41 AM WET 5:02 PM WET
Civil Twilight 6:14 AM WET 5:29 PM WET
Nautical Twilight 5:43 AM WET 6:00 PM WET
Astronomical Twilight 5:14 AM WET 6:30 PM WET
Moon 8:57 PM WET (11/15) 10:29 AM WET (11/15)
Length of Visible Light 11h 15m
Length of Day
10h 21m
Waning Gibbous, 81% of the Moon is Illuminated
Nov 15
Waning Gibbous
Nov 18
Last Quarter
Nov 25
New
Dec 2
First Quarter
Dec 10
Full

Hourly Weather History & Observations

Time (WET) Temp. Dew Point Humidity Pressure Visibility Wind Dir Wind Speed Gust Speed Precip Events Conditions
12:00 AM 59.0 °F 57.2 °F 94% 30.04 in 6.2 mi North 12.7 mph - N/A   Mostly Cloudy
1:00 AM 59.0 °F 57.2 °F 94% 30.01 in 5.0 mi North 10.4 mph - N/A   Mostly Cloudy
2:00 AM 59.0 °F 57.2 °F 94% 30.01 in 5.0 mi North 6.9 mph - N/A   Scattered Clouds
2:47 AM 58 °F 58 °F 100% 30.00 in 5 mi North 8.1 mph - -   Mostly Cloudy
3:00 AM 57.2 °F 57.2 °F 100% 30.01 in 5.0 mi North 8.1 mph - N/A   Scattered Clouds
4:00 AM 57.2 °F 57.2 °F 100% 30.01 in 5.0 mi SW 5.8 mph - N/A Rain Rain
5:00 AM 55.4 °F 55.4 °F 100% 30.01 in 5.0 mi WSW 8.1 mph - N/A   Mostly Cloudy
7:00 AM 53.6 °F 53.6 °F 100% 30.04 in 5.0 mi West 9.2 mph - N/A   Mostly Cloudy
8:00 AM 55.4 °F 55.4 °F 100% 30.06 in 5.0 mi West 6.9 mph - N/A   Mostly Cloudy
9:00 AM 58 °F 56 °F 91% 30.05 in 5 mi West 11.5 mph - -   Partly Cloudy
9:00 AM 59.0 °F 55.4 °F 88% 30.06 in 5.0 mi West 11.5 mph - N/A   Scattered Clouds
10:00 AM 60.8 °F 51.8 °F 72% 30.06 in 5.0 mi West 9.2 mph - N/A   Scattered Clouds
11:00 AM 62.6 °F 51.8 °F 68% 30.06 in 6.2 mi WNW 6.9 mph - N/A   Scattered Clouds
12:00 PM 64 °F 50 °F 51% 30.01 in 12 mi NNE 5.8 mph - -   Mostly Cloudy
12:00 PM 64.4 °F 50.0 °F 59% 30.04 in 6.2 mi NNE 5.8 mph - N/A   Scattered Clouds
1:00 PM 66.2 °F 46.4 °F 49% 30.04 in 6.2 mi NW 13.8 mph - N/A   Scattered Clouds
3:00 PM 65 °F 48 °F 44% 29.98 in 12 mi NNW 9.2 mph - -   Partly Cloudy
3:00 PM 66.2 °F 48.2 °F 52% 30.01 in 6.2 mi NNW 9.2 mph - N/A   Scattered Clouds
5:00 PM 60.8 °F 51.8 °F 72% 30.04 in 6.2 mi North 11.5 mph - N/A   Scattered Clouds
6:00 PM 57 °F 51 °F 74% 30.05 in 12 mi NNE 4.6 mph - -   Mostly Cloudy
6:00 PM 57.2 °F 51.8 °F 82% 30.06 in 6.2 mi NNE 4.6 mph - N/A   Scattered Clouds
8:00 PM 55.4 °F 51.8 °F 88% 30.06 in 6.2 mi Variable 2.3 mph - N/A   Partly Cloudy
9:00 PM 53 °F 50 °F 84% 30.10 in 12 mi SSE 2.3 mph - -   Partly Cloudy
9:00 PM 53.6 °F 50.0 °F 88% 30.09 in 6.2 mi Variable 2.3 mph - N/A   Partly Cloudy
10:00 PM 53.6 °F 51.8 °F 94% 30.09 in 6.2 mi WSW 6.9 mph - N/A   Partly Cloudy
11:00 PM 53.6 °F 51.8 °F 94% 30.09 in 6.2 mi SSW 4.6 mph - N/A   Partly Cloudy